Change the Weather History Date:

Wednesday, October 16, 2013

  Actual Average Record
Temperature  
Mean Temperature 56 °F -  
Max Temperature 62 °F 61 °F 84 °F (1956)
Min Temperature 51 °F 39 °F 25 °F (1991)
Degree Days  
Heating Degree Days 8    
Growing Degree Days 6 (Base 50)    
Moisture  
Dew Point 52 °F    
Average Humidity 84    
Maximum Humidity 100    
Minimum Humidity 55    
Precipitation  
Precipitation 0.00 in - - ()
Sea Level Pressure  
Sea Level Pressure 29.88 in    
Wind  
Wind Speed 8 mph (West)    
Max Wind Speed 20 mph    
Max Gust Speed 26 mph    
Visibility 7 miles    
Events      
Averages and records for this station are not official NWS values.
T = Trace of Precipitation, MM = Missing Value Source: NWS Daily Summary

Daily Weather History Graph

Daily Weather History Graph

Search for Another Location

Airport or City:

Trip Planner

Search our weather history database for the weather conditions in past years. The results will help you decide how hot, cold, wet, or windy it might be!

Date:

Astronomy

Oct. 16, 2013 Rise Set
Actual Time 7:50 AM EDT 6:52 PM EDT
Civil Twilight 7:21 AM EDT 7:20 PM EDT
Nautical Twilight 6:49 AM EDT 7:53 PM EDT
Astronomical Twilight 6:17 AM EDT 8:25 PM EDT
Moon 5:33 PM EDT (10/16) 5:14 AM EDT (10/16)
Length of Visible Light 11h 59m
Length of Day
11h 02m
Waxing Gibbous, 94% of the Moon is Illuminated
Oct 16
Waxing Gibbous
Oct 18
Full
Oct 26
Last Quarter
Nov 3
New
Nov 10
First Quarter

Hourly Weather History & Observations

Time (EDT) Temp. Dew Point Humidity Pressure Visibility Wind Dir Wind Speed Gust Speed Precip Events Conditions
12:50 AM 62.6 °F 60.8 °F 94% 29.86 in 6.0 mi WSW 6.9 mph - 0.00 in   Overcast
12:53 AM 62.1 °F 61.0 °F 96% 29.87 in 6.0 mi WSW 8.1 mph - 0.00 in   Overcast
1:05 AM 62.6 °F 60.8 °F 94% 29.86 in 6.0 mi SW 6.9 mph - N/A   Overcast
1:37 AM 60.8 °F 60.8 °F 100% 29.86 in 5.0 mi WSW 6.9 mph - N/A   Mostly Cloudy
1:51 AM 60.8 °F 60.8 °F 100% 29.86 in 5.0 mi WSW 5.8 mph - N/A   Mostly Cloudy
1:53 AM 61.0 °F 60.1 °F 97% 29.86 in 5.0 mi WSW 5.8 mph - N/A   Mostly Cloudy
2:21 AM 60.8 °F 60.8 °F 100% 29.86 in 6.0 mi WSW 5.8 mph - N/A   Mostly Cloudy
2:53 AM 61.0 °F 60.1 °F 97% 29.86 in 5.0 mi SW 8.1 mph - N/A   Overcast
3:01 AM 60.8 °F 60.8 °F 100% 29.86 in 5.0 mi SW 8.1 mph - N/A   Mostly Cloudy
3:11 AM 60.8 °F 59.0 °F 94% 29.86 in 5.0 mi SW 8.1 mph - N/A   Scattered Clouds
3:45 AM 59.0 °F 59.0 °F 100% 29.85 in 4.0 mi SW 5.8 mph - N/A   Mostly Cloudy
3:53 AM 60.1 °F 59.0 °F 96% 29.85 in 5.0 mi WSW 4.6 mph - N/A   Scattered Clouds
4:53 AM 57.0 °F 55.9 °F 96% 29.85 in 2.0 mi SW 5.8 mph - N/A   Clear
5:06 AM 57.2 °F 57.2 °F 100% 29.84 in 4.0 mi WSW 4.6 mph - N/A   Partly Cloudy
5:53 AM 57.0 °F 57.0 °F 100% 29.85 in 4.0 mi SW 4.6 mph - N/A   Scattered Clouds
6:00 AM 55.4 °F 55.4 °F 100% 29.84 in 1.8 mi SW 5.8 mph - N/A   Scattered Clouds
6:04 AM 55.4 °F 55.4 °F 100% 29.84 in 1.5 mi SW 5.8 mph - N/A   Mostly Cloudy
6:19 AM 57.2 °F 57.2 °F 100% 29.84 in 1.8 mi West 4.6 mph - N/A   Mostly Cloudy
6:33 AM 57.2 °F 55.4 °F 94% 29.85 in 3.0 mi NW 10.4 mph - N/A   Overcast
6:41 AM 55.4 °F 51.8 °F 88% 29.85 in 10.0 mi NW 8.1 mph - N/A   Overcast
6:48 AM 55.4 °F 50.0 °F 82% 29.85 in 10.0 mi NW 6.9 mph - N/A   Overcast
6:53 AM 55.9 °F 50.0 °F 80% 29.86 in 10.0 mi NW 5.8 mph - N/A   Overcast
7:53 AM 54.0 °F 50.0 °F 86% 29.87 in 10.0 mi West 4.6 mph - N/A   Mostly Cloudy
8:28 AM 53.6 °F 48.2 °F 82% 29.87 in 10.0 mi WSW 3.5 mph - N/A   Scattered Clouds
8:53 AM 54.0 °F 48.0 °F 80% 29.88 in 10.0 mi West 5.8 mph - N/A   Clear
9:53 AM 54.0 °F 45.0 °F 72% 29.88 in 10.0 mi West 12.7 mph - N/A   Clear
10:53 AM 55.9 °F 45.0 °F 67% 29.88 in 10.0 mi West 12.7 mph 19.6 mph N/A   Clear
11:53 AM 57.0 °F 44.1 °F 62% 29.88 in 10.0 mi West 12.7 mph 23.0 mph N/A   Clear
12:53 PM 57.9 °F 43.0 °F 58% 29.89 in 10.0 mi West 13.8 mph 23.0 mph N/A   Clear
1:53 PM 59.0 °F 43.0 °F 55% 29.88 in 10.0 mi West 13.8 mph 26.5 mph N/A   Partly Cloudy
2:53 PM 57.9 °F 43.0 °F 58% 29.89 in 10.0 mi NW 19.6 mph 26.5 mph N/A   Partly Cloudy
3:38 PM 55.4 °F 42.8 °F 63% 29.88 in 10.0 mi West 15.0 mph - N/A   Mostly Cloudy
3:53 PM 55.9 °F 43.0 °F 62% 29.89 in 10.0 mi West 9.2 mph - N/A   Mostly Cloudy
4:53 PM 55.0 °F 44.1 °F 67% 29.89 in 10.0 mi NW 11.5 mph - N/A   Overcast
5:53 PM 54.0 °F 43.0 °F 66% 29.90 in 10.0 mi West 11.5 mph - N/A   Overcast
6:53 PM 53.1 °F 43.0 °F 69% 29.91 in 10.0 mi West 8.1 mph - N/A   Overcast
7:53 PM 52.0 °F 44.1 °F 74% 29.93 in 10.0 mi WSW 6.9 mph - N/A   Overcast
8:53 PM 52.0 °F 44.1 °F 74% 29.94 in 10.0 mi West 8.1 mph - N/A   Overcast
9:53 PM 52.0 °F 45.0 °F 77% 29.95 in 10.0 mi WSW 6.9 mph - N/A   Overcast
10:53 PM 51.1 °F 44.1 °F 77% 29.95 in 10.0 mi West 8.1 mph - N/A   Overcast
11:53 PM 51.1 °F 44.1 °F 77% 29.94 in 10.0 mi West 8.1 mph - N/A   Overcast